View from above orbital plane
|
View from above satellite
|
Ground track
|
The orbit data is extracted from the following two-line orbital elements,
1 16496U 86006B 21018.82810066 .00000066 00000-0 49346-5 0 9992
2 16496 82.5235 220.2570 0020598 62.3177 308.4314 14.84165694870793
Epoch (UTC): | 18 January 2021 19:52:27 |
Eccentricity: | 0.0020598 |
inclination: | 82.5235° |
perigee height: | 602 km |
apogee height: | 630 km |
right ascension of ascending node: | 220.2570° |
argument of perigee: | 62.3177° |
revolutions per day: | 14.84165694 |
mean anomaly at epoch: | 308.4314° |
orbit number at epoch: | 87079 |
The dashed part of the orbit path shows where the satellite is in the earth's shadow,
|
|